Location: ČR
(50.0000°N, 15.0000°E)
Time: 11:17:38
(UTC+00:00)

ISS - Pass Details

Date: 28 September 2021
Orbit: 417 x 423 km, 51.6° (Epoch: 16 October)

Event Time Altitude Azimuth Distance (km) Brightness Sun altitude
Rises 17:20:48 0° 277° (W) 2,363 2.8 -6.6°
Reaches altitude 10° 17:22:55 10° 280° (W) 1,499 0.8 -7.0°
Maximum altitude 17:26:16 64° 3° (N) 469 -3.5 -7.5°
Enters shadow 17:29:31 11° 85° (E) 1,465 -1.7 -8.0°
